Wetterdaten: Woche 12.12.16 - 18.12.16 (KW50)
Datum Zeit Temp. A. Feuchte A. Luftdruck Regen Wind Richtung Sonnenschein ET UV Solar Taupunkt Windchill Windben Empfang
12.12.2016 00:00 5,7 C 83 % 1020,7 hPa 0,2 l/m 18,1 km/h (3 Bft) W-SW 0,00 h 0,000 mm 0,0 UV-I 0 W/m 3,1 C -1,5 C 26,7 km/h (4 Bft) 98,46 %
12.12.2016 01:00 4,8 C 89 % 1020,8 hPa 0,8 l/m 19,7 km/h (3 Bft) W-SW 0,00 h 0,025 mm 0,0 UV-I 0 W/m 3,1 C -3,2 C 30,4 km/h (5 Bft) 98,83 %
12.12.2016 02:00 4,1 C 92 % 1020,9 hPa 0,4 l/m 17,0 km/h (3 Bft) W-SW 0,00 h 0,026 mm 0,0 UV-I 0 W/m 2,9 C -2,9 C 26,6 km/h (4 Bft) 98,79 %
12.12.2016 03:00 3,9 C 92 % 1020,6 hPa 0,0 l/m 16,1 km/h (3 Bft) W-SW 0,00 h 0,025 mm 0,0 UV-I 0 W/m 2,7 C -2,8 C 23,7 km/h (4 Bft) 99,61 %
12.12.2016 04:00 3,6 C 92 % 1020,3 hPa 0,6 l/m 18,3 km/h (3 Bft) W-SW 0,00 h 0,026 mm 0,0 UV-I 0 W/m 2,5 C -4,1 C 26,8 km/h (4 Bft) 98,25 %
12.12.2016 05:00 3,4 C 94 % 1020,5 hPa 0,2 l/m 16,7 km/h (3 Bft) W-SW 0,00 h 0,025 mm 0,0 UV-I 0 W/m 2,5 C -3,7 C 24,7 km/h (4 Bft) 99,63 %
12.12.2016 06:00 3,3 C 94 % 1020,7 hPa 0,0 l/m 16,1 km/h (3 Bft) SW 0,00 h 0,000 mm 0,0 UV-I 0 W/m 2,4 C -3,4 C 23,8 km/h (4 Bft) 98,22 %
12.12.2016 07:00 3,5 C 94 % 1021,0 hPa 0,0 l/m 16,8 km/h (3 Bft) W-SW 0,00 h 0,000 mm 0,0 UV-I 0 W/m 2,7 C -3,6 C 25,3 km/h (4 Bft) 99,41 %
12.12.2016 08:00 3,9 C 93 % 1021,6 hPa 0,0 l/m 14,3 km/h (3 Bft) W-SW 0,00 h 0,000 mm 0,0 UV-I 10 W/m 2,9 C -1,8 C 21,5 km/h (4 Bft) 97,70 %
12.12.2016 09:00 4,5 C 92 % 1022,2 hPa 0,0 l/m 17,9 km/h (3 Bft) W-SW 0,00 h 0,000 mm 0,0 UV-I 16 W/m 3,3 C -2,8 C 27,0 km/h (4 Bft) 99,45 %
12.12.2016 10:00 4,8 C 91 % 1022,7 hPa 0,0 l/m 17,0 km/h (3 Bft) W-SW 0,00 h 0,025 mm 0,0 UV-I 25 W/m 3,5 C -2,1 C 25,7 km/h (4 Bft) 97,91 %
12.12.2016 11:00 5,0 C 90 % 1022,8 hPa 0,2 l/m 18,8 km/h (3 Bft) W-SW 0,00 h 0,026 mm 0,0 UV-I 42 W/m 3,6 C -2,5 C 28,0 km/h (4 Bft) 99,03 %
12.12.2016 12:00 5,5 C 87 % 1022,9 hPa 0,0 l/m 21,5 km/h (4 Bft) W 0,00 h 0,025 mm 0,0 UV-I 61 W/m 3,6 C -3,0 C 33,0 km/h (5 Bft) 98,75 %
12.12.2016 13:00 5,3 C 90 % 1023,4 hPa 0,0 l/m 20,0 km/h (4 Bft) W-SW 0,00 h 0,051 mm 0,0 UV-I 42 W/m 3,7 C -2,8 C 30,1 km/h (5 Bft) 99,21 %
12.12.2016 14:00 5,4 C 90 % 1023,9 hPa 0,0 l/m 18,6 km/h (3 Bft) W-SW 0,13 h 0,025 mm 0,0 UV-I 70 W/m 3,9 C -2,0 C 28,3 km/h (4 Bft) 98,50 %
12.12.2016 15:00 5,4 C 90 % 1024,1 hPa 0,0 l/m 15,9 km/h (3 Bft) W-SW 0,30 h 0,051 mm 0,0 UV-I 37 W/m 3,9 C -0,9 C 24,4 km/h (4 Bft) 99,24 %
12.12.2016 16:00 4,9 C 91 % 1024,6 hPa 0,0 l/m 12,3 km/h (3 Bft) W-SW 0,00 h 0,026 mm 0,0 UV-I 6 W/m 3,6 C 0,6 C 19,0 km/h (3 Bft) 98,96 %
12.12.2016 17:00 4,7 C 92 % 1025,1 hPa 0,0 l/m 12,7 km/h (3 Bft) SW 0,00 h 0,000 mm 0,0 UV-I 0 W/m 3,5 C 0,1 C 18,8 km/h (3 Bft) 98,81 %
12.12.2016 18:00 4,7 C 92 % 1025,7 hPa 0,0 l/m 11,6 km/h (2 Bft) SW 0,00 h 0,000 mm 0,0 UV-I 0 W/m 3,5 C 0,7 C 17,6 km/h (3 Bft) 98,81 %
12.12.2016 19:00 4,7 C 92 % 1026,1 hPa 0,0 l/m 14,1 km/h (3 Bft) SW 0,00 h 0,000 mm 0,0 UV-I 0 W/m 3,5 C -0,8 C 20,7 km/h (4 Bft) 98,64 %
12.12.2016 20:00 4,6 C 92 % 1026,4 hPa 0,0 l/m 11,7 km/h (2 Bft) W-SW 0,00 h 0,000 mm 0,0 UV-I 0 W/m 3,4 C 0,6 C 18,0 km/h (3 Bft) 98,72 %
12.12.2016 21:00 4,6 C 91 % 1026,6 hPa 0,0 l/m 9,4 km/h (2 Bft) SW 0,00 h 0,000 mm 0,0 UV-I 0 W/m 3,2 C 2,1 C 15,0 km/h (3 Bft) 97,85 %
12.12.2016 22:00 4,4 C 92 % 1027,2 hPa 0,0 l/m 9,2 km/h (2 Bft) SW 0,00 h 0,000 mm 0,0 UV-I 0 W/m 3,2 C 2,0 C 14,1 km/h (3 Bft) 99,48 %
12.12.2016 23:00 4,3 C 91 % 1027,5 hPa 0,0 l/m 7,5 km/h (2 Bft) W-SW 0,00 h 0,000 mm 0,0 UV-I 0 W/m 3,0 C 3,1 C 11,7 km/h (2 Bft) 98,07 %
13.12.2016 00:00 4,3 C 91 % 1027,4 hPa 0,0 l/m 7,0 km/h (2 Bft) W-SW 0,00 h 0,000 mm 0,0 UV-I 0 W/m 3,0 C 3,6 C 11,4 km/h (2 Bft) 99,31 %
13.12.2016 01:00 4,3 C 91 % 1027,6 hPa 0,0 l/m 5,1 km/h (1 Bft) W-SW 0,00 h 0,000 mm 0,0 UV-I 0 W/m 2,9 C 4,2 C 7,7 km/h (2 Bft) 97,70 %
13.12.2016 02:00 4,2 C 91 % 1027,8 hPa 0,0 l/m 0,4 km/h (0 Bft) W 0,00 h 0,000 mm 0,0 UV-I 0 W/m 2,9 C 4,2 C 1,2 km/h (1 Bft) 99,37 %
13.12.2016 03:00 3,9 C 92 % 1027,7 hPa 0,0 l/m 0,4 km/h (0 Bft) W 0,00 h 0,000 mm 0,0 UV-I 0 W/m 2,7 C 3,9 C 1,1 km/h (1 Bft) 97,61 %
13.12.2016 04:00 3,5 C 93 % 1027,6 hPa 0,0 l/m 1,8 km/h (1 Bft) O-NO 0,00 h 0,000 mm 0,0 UV-I 0 W/m 2,5 C 3,5 C 3,1 km/h (1 Bft) 98,67 %
13.12.2016 05:00 3,3 C 94 % 1027,7 hPa 0,0 l/m 5,4 km/h (1 Bft) O-NO 0,00 h 0,000 mm 0,0 UV-I 0 W/m 2,5 C 3,2 C 7,6 km/h (2 Bft) 97,99 %
13.12.2016 06:00 1,8 C 95 % 1027,6 hPa 0,0 l/m 8,4 km/h (2 Bft) O-NO 0,00 h 0,000 mm 0,0 UV-I 0 W/m 1,1 C -0,1 C 12,7 km/h (3 Bft) 99,49 %
13.12.2016 07:00 1,0 C 95 % 1027,8 hPa 0,0 l/m 8,0 km/h (2 Bft) O-NO 0,00 h 0,000 mm 0,0 UV-I 5 W/m 0,3 C -0,6 C 12,0 km/h (2 Bft) 98,05 %
13.12.2016 08:00 0,7 C 95 % 1028,0 hPa 0,0 l/m 7,5 km/h (2 Bft) O-NO 0,00 h 0,000 mm 0,0 UV-I 20 W/m -0,0 C -0,5 C 11,2 km/h (2 Bft) 99,67 %
13.12.2016 09:00 0,6 C 94 % 1028,3 hPa 0,0 l/m 7,6 km/h (2 Bft) O-NO 0,00 h 0,000 mm 0,0 UV-I 52 W/m -0,3 C -0,7 C 10,9 km/h (2 Bft) 98,26 %
13.12.2016 10:00 0,6 C 92 % 1028,5 hPa 0,0 l/m 8,6 km/h (2 Bft) O-NO 0,00 h 0,025 mm 0,0 UV-I 69 W/m -0,5 C -1,5 C 13,0 km/h (3 Bft) 99,02 %
13.12.2016 11:00 1,1 C 91 % 1028,3 hPa 0,0 l/m 6,1 km/h (2 Bft) O-NO 0,00 h 0,026 mm 0,0 UV-I 86 W/m -0,3 C 0,6 C 8,6 km/h (2 Bft) 98,20 %
13.12.2016 12:00 1,4 C 90 % 1027,8 hPa 0,0 l/m 5,6 km/h (1 Bft) O-NO 0,00 h 0,025 mm 0,0 UV-I 83 W/m 0,0 C 1,2 C 8,1 km/h (2 Bft) 98,89 %
13.12.2016 13:00 1,9 C 90 % 1027,4 hPa 0,0 l/m 3,9 km/h (1 Bft) O-NO 0,00 h 0,026 mm 0,0 UV-I 88 W/m 0,4 C 1,9 C 6,3 km/h (2 Bft) 97,94 %
13.12.2016 14:00 2,0 C 91 % 1027,3 hPa 0,0 l/m 3,9 km/h (1 Bft) O-NO 0,00 h 0,025 mm 0,0 UV-I 55 W/m 0,6 C 2,0 C 6,2 km/h (2 Bft) 99,05 %
13.12.2016 15:00 2,1 C 91 % 1027,3 hPa 0,0 l/m 4,3 km/h (1 Bft) NO 0,00 h 0,025 mm 0,0 UV-I 24 W/m 0,8 C 2,1 C 6,7 km/h (2 Bft) 98,47 %
13.12.2016 16:00 1,9 C 91 % 1027,2 hPa 0,0 l/m 5,0 km/h (1 Bft) O-NO 0,00 h 0,000 mm 0,0 UV-I 5 W/m 0,6 C 1,9 C 7,3 km/h (2 Bft) 99,14 %
13.12.2016 17:00 1,6 C 91 % 1027,2 hPa 0,0 l/m 5,8 km/h (2 Bft) O-NO 0,00 h 0,000 mm 0,0 UV-I 0 W/m 0,3 C 1,1 C 8,4 km/h (2 Bft) 98,53 %
13.12.2016 18:00 1,4 C 92 % 1027,0 hPa 0,0 l/m 3,7 km/h (1 Bft) SO 0,00 h 0,000 mm 0,0 UV-I 0 W/m 0,2 C 1,4 C 5,9 km/h (2 Bft) 98,70 %
13.12.2016 19:00 1,4 C 93 % 1026,7 hPa 0,0 l/m 0,7 km/h (0 Bft) SO 0,00 h 0,000 mm 0,0 UV-I 0 W/m 0,3 C 1,4 C 1,8 km/h (1 Bft) 98,43 %
13.12.2016 20:00 1,3 C 93 % 1026,7 hPa 0,0 l/m 0,3 km/h (0 Bft) SO 0,00 h 0,000 mm 0,0 UV-I 0 W/m 0,3 C 1,3 C 1,0 km/h (0 Bft) 98,20 %
13.12.2016 21:00 1,3 C 94 % 1026,5 hPa 0,0 l/m 0,3 km/h (0 Bft) SO 0,00 h 0,000 mm 0,0 UV-I 0 W/m 0,4 C 1,3 C 0,7 km/h (0 Bft) 98,23 %
13.12.2016 22:00 1,3 C 94 % 1026,3 hPa 0,0 l/m 1,8 km/h (1 Bft) SO 0,00 h 0,000 mm 0,0 UV-I 0 W/m 0,4 C 1,3 C 2,9 km/h (1 Bft) 98,26 %
13.12.2016 23:00 1,3 C 94 % 1026,1 hPa 0,0 l/m 1,6 km/h (1 Bft) SO 0,00 h 0,000 mm 0,0 UV-I 0 W/m 0,4 C 1,3 C 3,1 km/h (1 Bft) 98,67 %
14.12.2016 00:00 1,3 C 95 % 1026,0 hPa 0,0 l/m 1,0 km/h (0 Bft) O-SO 0,00 h 0,000 mm 0,0 UV-I 0 W/m 0,6 C 1,3 C 1,8 km/h (1 Bft) 98,29 %
14.12.2016 01:00 1,2 C 95 % 1025,8 hPa 0,0 l/m 0,4 km/h (0 Bft) O-SO 0,00 h 0,000 mm 0,0 UV-I 0 W/m 0,6 C 1,2 C 1,2 km/h (1 Bft) 98,83 %
14.12.2016 02:00 1,3 C 96 % 1025,7 hPa 0,2 l/m 1,2 km/h (1 Bft) O-SO 0,00 h 0,000 mm 0,0 UV-I 0 W/m 0,7 C 1,3 C 2,9 km/h (1 Bft) 98,30 %
14.12.2016 03:00 1,4 C 97 % 1025,4 hPa 0,0 l/m 1,3 km/h (1 Bft) W-SW 0,00 h 0,000 mm 0,0 UV-I 0 W/m 0,9 C 1,4 C 2,8 km/h (1 Bft) 98,96 %
14.12.2016 04:00 1,5 C 97 % 1025,0 hPa 1,0 l/m 1,0 km/h (0 Bft) W-SW 0,00 h 0,000 mm 0,0 UV-I 0 W/m 1,1 C 1,5 C 2,5 km/h (1 Bft) 97,92 %
14.12.2016 05:00 1,7 C 97 % 1025,0 hPa 0,2 l/m 1,1 km/h (1 Bft) S 0,00 h 0,000 mm 0,0 UV-I 0 W/m 1,3 C 1,7 C 2,6 km/h (1 Bft) 99,52 %
14.12.2016 06:00 1,8 C 98 % 1025,1 hPa 0,0 l/m 1,1 km/h (0 Bft) S 0,00 h 0,000 mm 0,0 UV-I 0 W/m 1,5 C 1,8 C 2,6 km/h (1 Bft) 97,26 %
14.12.2016 07:00 1,8 C 98 % 1025,1 hPa 0,0 l/m 0,1 km/h (0 Bft) S 0,00 h 0,000 mm 0,0 UV-I 5 W/m 1,5 C 1,8 C 0,4 km/h (0 Bft) 99,24 %
14.12.2016 08:00 2,0 C 98 % 1025,3 hPa 0,0 l/m 0,6 km/h (0 Bft) W 0,00 h 0,000 mm 0,0 UV-I 18 W/m 1,7 C 2,0 C 2,0 km/h (1 Bft) 97,96 %
14.12.2016 09:00 2,4 C 98 % 1025,6 hPa 0,0 l/m 3,1 km/h (1 Bft) W-SW 0,00 h 0,000 mm 0,0 UV-I 37 W/m 2,1 C 2,3 C 5,0 km/h (1 Bft) 99,52 %
14.12.2016 10:00 2,9 C 97 % 1025,7 hPa 0,0 l/m 2,5 km/h (1 Bft) W 0,00 h 0,025 mm 0,0 UV-I 82 W/m 2,5 C 2,9 C 4,5 km/h (1 Bft) 98,36 %
14.12.2016 11:00 3,5 C 95 % 1025,4 hPa 0,0 l/m 2,9 km/h (1 Bft) W 0,00 h 0,026 mm 0,0 UV-I 92 W/m 2,9 C 3,5 C 5,4 km/h (1 Bft) 99,49 %
14.12.2016 12:00 4,3 C 93 % 1025,3 hPa 0,0 l/m 1,2 km/h (1 Bft) W-NW 0,00 h 0,025 mm 0,0 UV-I 128 W/m 3,3 C 4,3 C 3,1 km/h (1 Bft) 98,00 %
14.12.2016 13:00 4,9 C 91 % 1025,2 hPa 0,0 l/m 1,8 km/h (1 Bft) W 0,07 h 0,051 mm 0,0 UV-I 108 W/m 3,5 C 4,9 C 3,9 km/h (1 Bft) 99,40 %
14.12.2016 14:00 5,2 C 88 % 1025,0 hPa 0,0 l/m 3,2 km/h (1 Bft) W 0,17 h 0,051 mm 0,0 UV-I 82 W/m 3,4 C 5,2 C 6,0 km/h (2 Bft) 98,25 %
14.12.2016 15:00 4,7 C 89 % 1025,2 hPa 0,0 l/m 0,7 km/h (0 Bft) W-NW 0,00 h 0,025 mm 0,0 UV-I 15 W/m 3,1 C 4,7 C 2,2 km/h (1 Bft) 99,29 %
14.12.2016 16:00 4,3 C 92 % 1025,4 hPa 0,0 l/m 1,9 km/h (1 Bft) W 0,00 h 0,000 mm 0,0 UV-I 6 W/m 3,1 C 4,3 C 3,4 km/h (1 Bft) 98,22 %
14.12.2016 17:00 4,4 C 92 % 1025,6 hPa 0,0 l/m 3,5 km/h (1 Bft) W 0,00 h 0,000 mm 0,0 UV-I 0 W/m 3,2 C 4,4 C 6,5 km/h (2 Bft) 98,77 %
14.12.2016 18:00 4,3 C 93 % 1025,9 hPa 0,0 l/m 7,4 km/h (2 Bft) W-SW 0,00 h 0,000 mm 0,0 UV-I 0 W/m 3,3 C 3,1 C 12,0 km/h (2 Bft) 98,56 %
14.12.2016 19:00 4,0 C 94 % 1026,1 hPa 0,0 l/m 5,2 km/h (1 Bft) W-SW 0,00 h 0,000 mm 0,0 UV-I 0 W/m 3,1 C 3,6 C 8,9 km/h (2 Bft) 98,88 %
14.12.2016 20:00 3,8 C 95 % 1026,7 hPa 0,0 l/m 3,8 km/h (1 Bft) W 0,00 h 0,000 mm 0,0 UV-I 0 W/m 3,1 C 3,6 C 7,0 km/h (2 Bft) 98,74 %
14.12.2016 21:00 3,6 C 95 % 1027,0 hPa 0,0 l/m 1,3 km/h (1 Bft) W 0,00 h 0,000 mm 0,0 UV-I 0 W/m 2,9 C 3,6 C 3,0 km/h (1 Bft) 98,67 %
14.12.2016 22:00 3,3 C 96 % 1027,4 hPa 0,2 l/m 4,0 km/h (1 Bft) SW 0,00 h 0,000 mm 0,0 UV-I 0 W/m 2,8 C 3,3 C 6,6 km/h (2 Bft) 98,75 %
14.12.2016 23:00 3,2 C 97 % 1027,5 hPa 0,0 l/m 2,9 km/h (1 Bft) SW 0,00 h 0,000 mm 0,0 UV-I 0 W/m 2,7 C 3,2 C 5,0 km/h (1 Bft) 98,54 %
15.12.2016 00:00 3,0 C 97 % 1027,6 hPa 0,0 l/m 1,3 km/h (1 Bft) N-NO 0,00 h 0,000 mm 0,0 UV-I 0 W/m 2,6 C 3,0 C 3,5 km/h (1 Bft) 98,86 %
15.12.2016 01:00 3,0 C 97 % 1027,7 hPa 0,0 l/m 2,6 km/h (1 Bft) SW 0,00 h 0,000 mm 0,0 UV-I 0 W/m 2,6 C 3,0 C 4,5 km/h (1 Bft) 98,24 %
15.12.2016 02:00 2,9 C 97 % 1027,8 hPa 0,0 l/m 1,9 km/h (1 Bft) SW 0,00 h 0,000 mm 0,0 UV-I 0 W/m 2,5 C 2,9 C 3,3 km/h (1 Bft) 99,39 %
15.12.2016 03:00 2,8 C 98 % 1028,0 hPa 0,0 l/m 0,8 km/h (0 Bft) SW 0,00 h 0,000 mm 0,0 UV-I 0 W/m 2,5 C 2,8 C 2,5 km/h (1 Bft) 97,46 %
15.12.2016 04:00 2,7 C 98 % 1028,0 hPa 0,0 l/m 1,3 km/h (1 Bft) W 0,00 h 0,000 mm 0,0 UV-I 0 W/m 2,4 C 2,7 C 2,9 km/h (1 Bft) 99,49 %
15.12.2016 05:00 2,5 C 98 % 1028,0 hPa 0,0 l/m 0,1 km/h (0 Bft) W 0,00 h 0,000 mm 0,0 UV-I 0 W/m 2,2 C 2,5 C 0,6 km/h (0 Bft) 97,93 %
15.12.2016 06:00 2,4 C 98 % 1028,2 hPa 0,0 l/m 0,8 km/h (0 Bft) S-SW 0,00 h 0,000 mm 0,0 UV-I 0 W/m 2,1 C 2,4 C 2,1 km/h (1 Bft) 99,64 %
15.12.2016 07:00 2,5 C 98 % 1028,3 hPa 0,0 l/m 1,3 km/h (1 Bft) O 0,00 h 0,000 mm 0,0 UV-I 6 W/m 2,2 C 2,5 C 3,0 km/h (1 Bft) 97,63 %
15.12.2016 08:00 2,5 C 98 % 1028,9 hPa 0,0 l/m 6,1 km/h (2 Bft) NO 0,00 h 0,000 mm 0,0 UV-I 19 W/m 2,2 C 2,0 C 8,6 km/h (2 Bft) 99,39 %
15.12.2016 09:00 2,5 C 98 % 1029,3 hPa 0,0 l/m 11,4 km/h (2 Bft) NO 0,00 h 0,000 mm 0,0 UV-I 48 W/m 2,2 C -1,5 C 16,5 km/h (3 Bft) 98,12 %
15.12.2016 10:00 2,4 C 98 % 1029,4 hPa 0,0 l/m 12,7 km/h (3 Bft) O-NO 0,00 h 0,025 mm 0,0 UV-I 69 W/m 2,1 C -2,5 C 18,1 km/h (3 Bft) 99,21 %
15.12.2016 11:00 2,4 C 98 % 1029,2 hPa 0,0 l/m 15,8 km/h (3 Bft) O-NO 0,27 h 0,026 mm 0,2 UV-I 134 W/m 2,1 C -4,5 C 22,0 km/h (4 Bft) 97,41 %
15.12.2016 12:00 3,2 C 95 % 1028,8 hPa 0,0 l/m 13,9 km/h (3 Bft) O-NO 0,67 h 0,051 mm 0,4 UV-I 232 W/m 2,6 C -2,4 C 19,6 km/h (3 Bft) 99,44 %
15.12.2016 13:00 4,0 C 89 % 1028,1 hPa 0,0 l/m 15,8 km/h (3 Bft) O-NO 0,50 h 0,101 mm 0,0 UV-I 176 W/m 2,3 C -2,5 C 22,1 km/h (4 Bft) 97,98 %
15.12.2016 14:00 3,8 C 89 % 1028,2 hPa 0,0 l/m 16,0 km/h (3 Bft) O-NO 0,07 h 0,076 mm 0,0 UV-I 62 W/m 2,1 C -2,9 C 22,0 km/h (4 Bft) 99,26 %
15.12.2016 15:00 3,1 C 88 % 1028,2 hPa 0,0 l/m 17,9 km/h (3 Bft) O-NO 0,37 h 0,051 mm 0,0 UV-I 40 W/m 1,4 C -4,6 C 24,5 km/h (4 Bft) 97,99 %
15.12.2016 16:00 2,1 C 89 % 1028,2 hPa 0,0 l/m 16,3 km/h (3 Bft) O-NO 0,00 h 0,026 mm 0,0 UV-I 7 W/m 0,6 C -5,0 C 22,8 km/h (4 Bft) 99,10 %
15.12.2016 17:00 1,7 C 89 % 1028,4 hPa 0,0 l/m 16,0 km/h (3 Bft) NO 0,00 h 0,025 mm 0,0 UV-I 0 W/m 0,2 C -5,4 C 21,9 km/h (4 Bft) 97,68 %
15.12.2016 18:00 1,5 C 88 % 1028,7 hPa 0,0 l/m 18,0 km/h (3 Bft) O-NO 0,00 h 0,025 mm 0,0 UV-I 0 W/m -0,2 C -6,6 C 25,4 km/h (4 Bft) 99,56 %
15.12.2016 19:00 1,2 C 87 % 1029,1 hPa 0,0 l/m 22,1 km/h (4 Bft) NO 0,00 h 0,026 mm 0,0 UV-I 0 W/m -0,8 C -9,0 C 31,8 km/h (5 Bft) 98,05 %
15.12.2016 20:00 0,8 C 85 % 1029,4 hPa 0,0 l/m 22,3 km/h (4 Bft) NO 0,00 h 0,025 mm 0,0 UV-I 0 W/m -1,4 C -9,5 C 32,6 km/h (5 Bft) 99,28 %
15.12.2016 21:00 0,6 C 85 % 1029,6 hPa 0,0 l/m 18,9 km/h (3 Bft) O-NO 0,00 h 0,026 mm 0,0 UV-I 0 W/m -1,7 C -8,3 C 27,4 km/h (4 Bft) 97,88 %
15.12.2016 22:00 0,4 C 85 % 1029,7 hPa 0,0 l/m 16,2 km/h (3 Bft) NO 0,00 h 0,025 mm 0,0 UV-I 0 W/m -1,9 C -7,2 C 23,6 km/h (4 Bft) 99,61 %
15.12.2016 23:00 0,3 C 85 % 1029,8 hPa 0,0 l/m 17,4 km/h (3 Bft) NO 0,00 h 0,025 mm 0,0 UV-I 0 W/m -1,9 C -7,9 C 24,3 km/h (4 Bft) 97,75 %
16.12.2016 00:00 0,4 C 86 % 1029,8 hPa 0,0 l/m 15,7 km/h (3 Bft) NO 0,00 h 0,000 mm 0,0 UV-I 0 W/m -1,7 C -6,9 C 22,3 km/h (4 Bft) 99,11 %
16.12.2016 01:00 0,3 C 85 % 1029,7 hPa 0,0 l/m 17,6 km/h (3 Bft) O-NO 0,00 h 0,025 mm 0,0 UV-I 0 W/m -1,8 C -8,0 C 26,3 km/h (4 Bft) 97,47 %
16.12.2016 02:00 0,4 C 85 % 1029,9 hPa 0,0 l/m 20,3 km/h (4 Bft) NO 0,00 h 0,026 mm 0,0 UV-I 0 W/m -1,9 C -9,3 C 28,6 km/h (4 Bft) 99,59 %
16.12.2016 03:00 0,1 C 85 % 1030,1 hPa 0,0 l/m 20,7 km/h (4 Bft) O-NO 0,00 h 0,025 mm 0,0 UV-I 0 W/m -2,2 C -9,8 C 30,2 km/h (5 Bft) 97,70 %
16.12.2016 04:00 -0,2 C 87 % 1030,1 hPa 0,0 l/m 17,2 km/h (3 Bft) NO 0,00 h 0,026 mm 0,0 UV-I 0 W/m -2,1 C -8,3 C 24,6 km/h (4 Bft) 99,31 %
16.12.2016 05:00 -0,2 C 88 % 1030,5 hPa 0,0 l/m 16,1 km/h (3 Bft) NO 0,00 h 0,025 mm 0,0 UV-I 0 W/m -2,0 C -7,8 C 23,0 km/h (4 Bft) 98,06 %
16.12.2016 06:00 -0,2 C 87 % 1030,8 hPa 0,0 l/m 20,0 km/h (4 Bft) O-NO 0,00 h 0,025 mm 0,0 UV-I 0 W/m -2,2 C -9,8 C 28,1 km/h (4 Bft) 99,28 %
16.12.2016 07:00 -0,3 C 87 % 1031,4 hPa 0,0 l/m 20,6 km/h (4 Bft) O-NO 0,00 h 0,026 mm 0,0 UV-I 5 W/m -2,2 C -10,2 C 28,8 km/h (5 Bft) 97,92 %
16.12.2016 08:00 -0,5 C 88 % 1031,7 hPa 0,0 l/m 20,3 km/h (4 Bft) O-NO 0,00 h 0,025 mm 0,0 UV-I 29 W/m -2,3 C -10,4 C 28,9 km/h (5 Bft) 99,45 %
16.12.2016 09:00 -0,6 C 89 % 1032,1 hPa 0,0 l/m 20,8 km/h (4 Bft) O-NO 0,00 h 0,026 mm 0,0 UV-I 58 W/m -2,2 C -10,8 C 28,5 km/h (4 Bft) 98,21 %
16.12.2016 10:00 -0,1 C 88 % 1032,2 hPa 0,0 l/m 18,1 km/h (3 Bft) O-NO 0,17 h 0,025 mm 0,0 UV-I 132 W/m -1,9 C -8,7 C 25,6 km/h (4 Bft) 98,67 %
16.12.2016 11:00 0,3 C 86 % 1032,0 hPa 0,0 l/m 18,9 km/h (3 Bft) O-NO 0,00 h 0,051 mm 0,0 UV-I 118 W/m -1,7 C -8,6 C 26,3 km/h (4 Bft) 97,99 %
16.12.2016 12:00 1,5 C 84 % 1031,7 hPa 0,0 l/m 18,5 km/h (3 Bft) O-NO 0,97 h 0,051 mm 0,5 UV-I 312 W/m -1,0 C -7,0 C 26,2 km/h (4 Bft) 98,91 %
16.12.2016 13:00 2,0 C 83 % 1031,7 hPa 0,0 l/m 17,4 km/h (3 Bft) O-NO 0,93 h 0,127 mm 0,0 UV-I 236 W/m -0,6 C -5,7 C 24,1 km/h (4 Bft) 97,85 %
16.12.2016 14:00 2,3 C 82 % 1031,7 hPa 0,0 l/m 14,2 km/h (3 Bft) O-NO 1,00 h 0,101 mm 0,0 UV-I 163 W/m -0,4 C -3,6 C 21,3 km/h (4 Bft) 98,56 %
16.12.2016 15:00 1,8 C 85 % 1032,0 hPa 0,0 l/m 10,9 km/h (2 Bft) O-NO 1,00 h 0,076 mm 0,0 UV-I 57 W/m -0,5 C -2,0 C 16,6 km/h (3 Bft) 98,74 %
16.12.2016 16:00 1,0 C 87 % 1032,4 hPa 0,0 l/m 9,5 km/h (2 Bft) O-NO 0,00 h 0,026 mm 0,0 UV-I 8 W/m -0,8 C -1,8 C 15,0 km/h (3 Bft) 98,89 %
16.12.2016 17:00 0,7 C 89 % 1032,7 hPa 0,0 l/m 11,9 km/h (2 Bft) O-NO 0,00 h 0,000 mm 0,0 UV-I 0 W/m -1,0 C -4,1 C 17,8 km/h (3 Bft) 98,11 %
16.12.2016 18:00 0,4 C 89 % 1032,9 hPa 0,0 l/m 12,1 km/h (2 Bft) O-NO 0,00 h 0,000 mm 0,0 UV-I 0 W/m -1,2 C -4,5 C 18,4 km/h (3 Bft) 98,80 %
16.12.2016 19:00 -0,1 C 90 % 1033,3 hPa 0,0 l/m 7,2 km/h (2 Bft) O-NO 0,00 h 0,000 mm 0,0 UV-I 0 W/m -1,5 C -1,2 C 11,4 km/h (2 Bft) 98,34 %
16.12.2016 20:00 -0,6 C 92 % 1033,6 hPa 0,0 l/m 6,3 km/h (2 Bft) O-NO 0,00 h 0,000 mm 0,0 UV-I 0 W/m -1,8 C -1,0 C 10,0 km/h (2 Bft) 99,37 %
16.12.2016 21:00 -0,9 C 92 % 1034,1 hPa 0,0 l/m 5,4 km/h (1 Bft) O-NO 0,00 h 0,000 mm 0,0 UV-I 0 W/m -2,0 C -1,6 C 9,1 km/h (2 Bft) 97,94 %
16.12.2016 22:00 -1,8 C 94 % 1034,7 hPa 0,0 l/m 0,8 km/h (0 Bft) O 0,00 h 0,000 mm 0,0 UV-I 0 W/m -2,7 C -1,8 C 1,7 km/h (1 Bft) 99,63 %
16.12.2016 23:00 -2,6 C 95 % 1035,0 hPa 0,0 l/m 1,1 km/h (0 Bft) O-SO 0,00 h 0,000 mm 0,0 UV-I 0 W/m -3,2 C -2,6 C 2,1 km/h (1 Bft) 97,09 %
17.12.2016 00:00 -2,7 C 96 % 1035,3 hPa 0,0 l/m 2,4 km/h (1 Bft) S-SW 0,00 h 0,000 mm 0,0 UV-I 0 W/m -3,2 C -2,7 C 4,2 km/h (1 Bft) 99,37 %
17.12.2016 01:00 -1,9 C 96 % 1035,6 hPa 0,0 l/m 2,2 km/h (1 Bft) SW 0,00 h 0,000 mm 0,0 UV-I 0 W/m -2,4 C -1,9 C 3,6 km/h (1 Bft) 97,41 %
17.12.2016 02:00 -1,3 C 95 % 1035,9 hPa 0,0 l/m 4,4 km/h (1 Bft) SW 0,00 h 0,000 mm 0,0 UV-I 0 W/m -2,0 C -1,4 C 7,6 km/h (2 Bft) 99,11 %
17.12.2016 03:00 -1,4 C 95 % 1036,3 hPa 0,0 l/m 4,6 km/h (1 Bft) W 0,00 h 0,000 mm 0,0 UV-I 0 W/m -2,1 C -1,5 C 8,0 km/h (2 Bft) 97,81 %
17.12.2016 04:00 -1,5 C 94 % 1036,6 hPa 0,0 l/m 3,5 km/h (1 Bft) SW 0,00 h 0,000 mm 0,0 UV-I 0 W/m -2,3 C -1,5 C 6,6 km/h (2 Bft) 99,15 %
17.12.2016 05:00 -1,6 C 94 % 1036,6 hPa 0,0 l/m 2,6 km/h (1 Bft) W-SW 0,00 h 0,000 mm 0,0 UV-I 0 W/m -2,4 C -1,6 C 5,0 km/h (1 Bft) 98,07 %
17.12.2016 06:00 -1,7 C 95 % 1037,0 hPa 0,0 l/m 2,0 km/h (1 Bft) SW 0,00 h 0,000 mm 0,0 UV-I 0 W/m -2,4 C -1,7 C 3,9 km/h (1 Bft) 98,84 %
17.12.2016 07:00 -1,7 C 95 % 1037,6 hPa 0,0 l/m 2,1 km/h (1 Bft) W 0,00 h 0,000 mm 0,0 UV-I 5 W/m -2,4 C -1,7 C 4,3 km/h (1 Bft) 98,37 %
17.12.2016 08:00 -1,9 C 96 % 1038,1 hPa 0,0 l/m 2,3 km/h (1 Bft) W-SW 0,00 h 0,000 mm 0,0 UV-I 15 W/m -2,5 C -1,9 C 4,6 km/h (1 Bft) 98,41 %
17.12.2016 09:00 -1,8 C 96 % 1038,5 hPa 0,0 l/m 2,4 km/h (1 Bft) W-SW 0,00 h 0,000 mm 0,0 UV-I 34 W/m -2,3 C -1,8 C 4,4 km/h (1 Bft) 98,58 %
17.12.2016 10:00 -2,0 C 96 % 1038,9 hPa 0,0 l/m 3,1 km/h (1 Bft) W-SW 0,00 h 0,000 mm 0,0 UV-I 52 W/m -2,5 C -2,0 C 6,0 km/h (2 Bft) 98,49 %
17.12.2016 11:00 -1,9 C 96 % 1038,9 hPa 0,0 l/m 3,3 km/h (1 Bft) SW 0,00 h 0,025 mm 0,0 UV-I 66 W/m -2,5 C -1,9 C 5,8 km/h (2 Bft) 98,57 %
17.12.2016 12:00 -1,7 C 96 % 1038,6 hPa 0,0 l/m 2,8 km/h (1 Bft) W 0,00 h 0,026 mm 0,0 UV-I 68 W/m -2,3 C -1,7 C 5,6 km/h (1 Bft) 98,47 %
17.12.2016 13:00 -1,7 C 95 % 1038,6 hPa 0,0 l/m 5,0 km/h (1 Bft) W 0,00 h 0,025 mm 0,0 UV-I 59 W/m -2,4 C -2,0 C 8,6 km/h (2 Bft) 98,16 %
17.12.2016 14:00 -1,1 C 93 % 1038,7 hPa 0,0 l/m 3,8 km/h (1 Bft) W-SW 0,00 h 0,026 mm 0,0 UV-I 43 W/m -2,1 C -1,2 C 6,4 km/h (2 Bft) 98,63 %
17.12.2016 15:00 -1,0 C 92 % 1039,0 hPa 0,0 l/m 4,7 km/h (1 Bft) W 0,03 h 0,025 mm 0,0 UV-I 19 W/m -2,1 C -1,3 C 8,3 km/h (2 Bft) 98,58 %
17.12.2016 16:00 -1,1 C 92 % 1039,2 hPa 0,0 l/m 8,1 km/h (2 Bft) W-SW 0,00 h 0,000 mm 0,0 UV-I 6 W/m -2,2 C -3,0 C 12,6 km/h (3 Bft) 98,75 %
17.12.2016 17:00 -1,0 C 92 % 1039,3 hPa 0,0 l/m 8,7 km/h (2 Bft) W 0,00 h 0,000 mm 0,0 UV-I 0 W/m -2,1 C -3,3 C 14,0 km/h (3 Bft) 98,85 %
17.12.2016 18:00 -0,8 C 93 % 1039,5 hPa 0,0 l/m 6,5 km/h (2 Bft) W 0,00 h 0,000 mm 0,0 UV-I 0 W/m -1,8 C -1,5 C 11,5 km/h (2 Bft) 98,38 %
17.12.2016 19:00 -0,7 C 92 % 1039,6 hPa 0,0 l/m 7,1 km/h (2 Bft) W 0,00 h 0,000 mm 0,0 UV-I 0 W/m -1,8 C -1,8 C 11,8 km/h (2 Bft) 98,83 %
17.12.2016 20:00 -0,7 C 92 % 1039,7 hPa 0,0 l/m 6,3 km/h (2 Bft) W 0,00 h 0,000 mm 0,0 UV-I 0 W/m -1,8 C -1,4 C 11,1 km/h (2 Bft) 98,21 %
17.12.2016 21:00 -0,8 C 93 % 1040,0 hPa 0,0 l/m 2,9 km/h (1 Bft) W 0,00 h 0,000 mm 0,0 UV-I 0 W/m -1,8 C -0,8 C 5,7 km/h (1 Bft) 98,92 %
17.12.2016 22:00 -0,9 C 93 % 1040,3 hPa 0,0 l/m 2,5 km/h (1 Bft) W-NW 0,00 h 0,000 mm 0,0 UV-I 0 W/m -1,8 C -0,9 C 5,0 km/h (1 Bft) 98,31 %
17.12.2016 23:00 -1,1 C 95 % 1040,1 hPa 0,0 l/m 0,6 km/h (0 Bft) NW 0,00 h 0,000 mm 0,0 UV-I 0 W/m -1,8 C -1,1 C 1,8 km/h (1 Bft) 99,34 %
18.12.2016 00:00 -1,1 C 95 % 1039,6 hPa 0,0 l/m 0,9 km/h (0 Bft) NW 0,00 h 0,000 mm 0,0 UV-I 0 W/m -1,8 C -1,1 C 2,2 km/h (1 Bft) 98,16 %
18.12.2016 01:00 -1,2 C 96 % 1039,1 hPa 0,0 l/m 1,2 km/h (1 Bft) N-NO 0,00 h 0,000 mm 0,0 UV-I 0 W/m -1,8 C -1,2 C 2,6 km/h (1 Bft) 99,37 %
18.12.2016 02:00 -1,5 C 96 % 1038,7 hPa 0,0 l/m 3,0 km/h (1 Bft) NO 0,00 h 0,000 mm 0,0 UV-I 0 W/m -2,0 C -1,5 C 4,8 km/h (1 Bft) 97,79 %
18.12.2016 03:00 -1,7 C 97 % 1037,9 hPa 0,0 l/m 3,6 km/h (1 Bft) N-NO 0,00 h 0,000 mm 0,0 UV-I 0 W/m -2,2 C -1,7 C 6,1 km/h (2 Bft) 99,27 %
18.12.2016 04:00 -1,9 C 97 % 1037,4 hPa 0,0 l/m 3,1 km/h (1 Bft) N-NO 0,00 h 0,000 mm 0,0 UV-I 0 W/m -2,3 C -1,9 C 5,9 km/h (2 Bft) 97,91 %
18.12.2016 05:00 -2,0 C 97 % 1036,9 hPa 0,0 l/m 1,5 km/h (1 Bft) N-NO 0,00 h 0,000 mm 0,0 UV-I 0 W/m -2,4 C -2,0 C 3,4 km/h (1 Bft) 99,45 %
18.12.2016 06:00 -2,0 C 97 % 1036,5 hPa 0,0 l/m 1,2 km/h (1 Bft) N-NW 0,00 h 0,000 mm 0,0 UV-I 0 W/m -2,4 C -2,0 C 3,2 km/h (1 Bft) 97,81 %
18.12.2016 07:00 -1,8 C 98 % 1036,0 hPa 0,0 l/m 0,6 km/h (0 Bft) S 0,00 h 0,000 mm 0,0 UV-I 5 W/m -2,1 C -1,8 C 2,1 km/h (1 Bft) 99,43 %
18.12.2016 08:00 -1,6 C 98 % 1035,9 hPa 0,0 l/m 1,0 km/h (0 Bft) W-SW 0,00 h 0,000 mm 0,0 UV-I 12 W/m -1,9 C -1,6 C 2,8 km/h (1 Bft) 98,12 %
18.12.2016 09:00 -1,2 C 98 % 1035,7 hPa 0,0 l/m 2,1 km/h (1 Bft) W 0,00 h 0,000 mm 0,0 UV-I 27 W/m -1,5 C -1,2 C 4,3 km/h (1 Bft) 99,29 %
18.12.2016 10:00 -0,7 C 97 % 1035,2 hPa 0,0 l/m 2,6 km/h (1 Bft) W 0,00 h 0,000 mm 0,0 UV-I 54 W/m -1,1 C -0,7 C 4,5 km/h (1 Bft) 98,09 %
18.12.2016 11:00 -0,2 C 95 % 1034,7 hPa 0,0 l/m 0,6 km/h (0 Bft) W 0,00 h 0,025 mm 0,0 UV-I 62 W/m -0,9 C -0,2 C 2,0 km/h (1 Bft) 99,43 %
18.12.2016 12:00 0,1 C 94 % 1034,1 hPa 0,0 l/m 0,8 km/h (0 Bft) W-SW 0,00 h 0,026 mm 0,0 UV-I 71 W/m -0,7 C 0,1 C 2,2 km/h (1 Bft) 97,74 %
18.12.2016 13:00 0,3 C 94 % 1033,7 hPa 0,0 l/m 3,8 km/h (1 Bft) W-SW 0,00 h 0,025 mm 0,0 UV-I 41 W/m -0,6 C 0,3 C 5,9 km/h (2 Bft) 99,37 %
18.12.2016 14:00 0,3 C 94 % 1033,3 hPa 0,0 l/m 5,1 km/h (1 Bft) SW 0,00 h 0,026 mm 0,0 UV-I 26 W/m -0,5 C 0,1 C 8,1 km/h (2 Bft) 97,92 %
18.12.2016 15:00 0,3 C 96 % 1033,0 hPa 0,0 l/m 3,2 km/h (1 Bft) W-SW 0,00 h 0,000 mm 0,0 UV-I 7 W/m -0,4 C 0,3 C 5,3 km/h (1 Bft) 99,24 %
18.12.2016 16:00 0,3 C 97 % 1032,6 hPa 0,0 l/m 1,5 km/h (1 Bft) S 0,00 h 0,000 mm 0,0 UV-I 3 W/m -0,2 C 0,3 C 3,0 km/h (1 Bft) 97,79 %
18.12.2016 17:00 0,4 C 97 % 1031,9 hPa 0,0 l/m 1,7 km/h (1 Bft) S-SW 0,00 h 0,000 mm 0,0 UV-I 0 W/m -0,0 C 0,4 C 3,5 km/h (1 Bft) 98,79 %
18.12.2016 18:00 0,2 C 97 % 1031,8 hPa 0,0 l/m 0,5 km/h (0 Bft) W 0,00 h 0,000 mm 0,0 UV-I 0 W/m -0,2 C 0,2 C 2,1 km/h (1 Bft) 98,22 %
18.12.2016 19:00 0,2 C 98 % 1031,9 hPa 0,0 l/m 0,6 km/h (0 Bft) W 0,00 h 0,000 mm 0,0 UV-I 0 W/m -0,1 C 0,2 C 2,3 km/h (1 Bft) 99,05 %
18.12.2016 20:00 0,1 C 98 % 1032,1 hPa 0,0 l/m 1,4 km/h (1 Bft) W 0,00 h 0,000 mm 0,0 UV-I 0 W/m -0,2 C 0,1 C 3,1 km/h (1 Bft) 98,69 %
18.12.2016 21:00 0,1 C 98 % 1032,0 hPa 0,0 l/m 2,7 km/h (1 Bft) S-SW 0,00 h 0,000 mm 0,0 UV-I 0 W/m -0,2 C 0,1 C 4,7 km/h (1 Bft) 98,55 %
18.12.2016 22:00 0,1 C 98 % 1032,0 hPa 0,0 l/m 0,8 km/h (0 Bft) W 0,00 h 0,000 mm 0,0 UV-I 0 W/m -0,2 C 0,1 C 1,7 km/h (1 Bft) 98,95 %
18.12.2016 23:00 0,1 C 98 % 1031,9 hPa 0,0 l/m 0,4 km/h (0 Bft) W-SW 0,00 h 0,000 mm 0,0 UV-I 0 W/m -0,2 C 0,1 C 1,2 km/h (1 Bft) 98,48 %
Min-Datum _ 16.12.16 12.12.16 12.12.16 - 13.12.16 - - - - - 16.12.16 16.12.16 13.12.16 14.12.16
_ Min-Zeit 23:56 00:00 04:20 - 02:04 - - - - - 23:56 09:12 02:04 18:38
Minimum _ -2,9 C 81 % 1020,2 hPa - 0,0 km/h (0 Bft) - - - - - -3,6 C -12,6 C 0,0 km/h (0 Bft) 91,43 %
Max-Datum _ 12.12.16 15.12.16 17.12.16 14.12.16 12.12.16 - 12.12.16 16.12.16 15.12.16 16.12.16 12.12.16 14.12.16 12.12.16 12.12.16
_ Max-Zeit 00:00 11:06 22:40 04:16 12:24 - 14:52 13:00 12:06 12:16 14:56 14:24 00:56 00:16
Maximum _ 5,9 C 99 % 1040,5 hPa 1,0 l/m 27,8 km/h
W (4 Bft)
- 0,03 h 0,127 mm 0,5 UV-I 393 W/m 4,1 C 5,4 C 41,8 km/h
W-SW (6 Bft)
100,00 %
Durchschnitt _ 1,4 C 93 % 1030,0 hPa #4,0 l/m 7,6 km/h (2 Bft) O-NO #6:38 h #2,159 mm 0,4 UV-I 57 W/m 0,4 C -1,1 C 11,6 km/h (2 Bft) 98,62 %